Regional Weather Roundup
Issued by NWS

Home | Current Version | Previous Version | Text Only | Print | Product List | Glossary On
Versions: 1 2 3 4 5 6 7 8 9 10 11 12 13 14 15 16 17 18 19 20 21 22 23 24 25 26 27 28 29 30 31 32 33 34 35 36 37 38 39 40 41 42 43 44 45 46 47 48 49 50
000
ASUS43 KLMK 240702
RWRKY
KENTUCKY REGIONAL WEATHER ROUNDUP
NATIONAL WEATHER SERVICE LOUISVILLE KY
300 AM EDT SAT JUN 24 2017

NOTE "FAIR" INDICATES FEW OR NO CLOUDS BELOW 12,000 FEET
WITH NO SIGNIFICANT WEATHER AND/OR OBSTRUCTIONS TO VISIBILITY.

KYZ001>023-026-027-061>063-070>075-240800-
WESTERN AND SOUTH CENTRAL KENTUCKY

CITY           SKY/WX    TMP DP  RH WIND       PRES   REMARKS
PADUCAH        PTCLDY    68  62  81 CALM      29.94R
HENDERSON      MOCLDY    66  65  96 W7        29.94R
OWENSBORO      FOG       68  67  96 CALM      29.92R VSB 1/2
HOPKINSVILLE   CLOUDY    70  70  99 CALM      29.92S
BOWLING GREEN  PTCLDY    72  71  97 NW5       29.91R
GLASGOW        NOT AVBL
$$

KYZ024-025-028>034-038-045-046-053-240800-
NORTH CENTRAL KENTUCKY

CITY           SKY/WX    TMP DP  RH WIND       PRES   REMARKS
LOUISVILLE/SDF MOCLDY    68  67  96 CALM      29.89S
LOUISVILLE/LOU FOG       67  67 100 CALM      29.90F VSB 1/4
FORT KNOX      FOG       64  64 100 CALM      29.89F VSB 1
$$

KYZ035>037-039>044-047>052-055>060-089>105-240800-
NORTHEAST KENTUCKY

CITY           SKY/WX    TMP DP  RH WIND       PRES   REMARKS
LEXINGTON      PTCLDY    68  66  93 W3        29.90S
COVINGTON      CLEAR     65  65 100 SW3       29.88R
FRANKFORT      FOG       66  63  90 CALM      29.89S VSB 1
$$

KYZ054-064>069-076>088-106>120-240800-
SOUTHEAST KENTUCKY

CITY           SKY/WX    TMP DP  RH WIND       PRES   REMARKS
JACKSON        LGT RAIN  66  65  96 VRB3      29.90F VSB 1/2
LONDON         CLOUDY    68  66  93 CALM      29.90F
SOMERSET       CLOUDY    68  68 100 CALM      29.91S
MIDDLESBORO    PTCLDY    66  66 100 CALM      29.92F
MONTICELLO     CLOUDY    71  71 100 W12       29.91F
$$





USA.gov is the U.S. government's official web portal to all federal, state and local government web resources and services.